Time,TemperatureF,DewpointF,PressureIn,WindDirection,WindDirectionDegrees,WindSpeedMPH,WindSpeedGustMPH,Humidity,HourlyPrecipIn,Conditions,Clouds,dailyrainin,SolarRadiationWatts/m^2,SoftwareType,DateUTC
2013-02-09 00:07:00,31.3,27.0,29.99,WNW,284,4.0,-999.0,85,-99.99,,,0.00,0,weatherlink.com 1.10,2013-02-09 08:07:00,
2013-02-09 00:22:00,31.2,28.0,29.99,WSW,253,8.0,-999.0,86,-99.99,,,0.00,0,weatherlink.com 1.10,2013-02-09 08:22:00,
2013-02-09 00:37:00,31.1,27.0,29.99,SW,236,10.0,-999.0,86,-99.99,,,0.00,0,weatherlink.com 1.10,2013-02-09 08:37:00,
2013-02-09 00:52:00,31.2,28.0,30.00,West,276,5.0,-999.0,86,-99.99,,,0.00,0,weatherlink.com 1.10,2013-02-09 08:52:00,
2013-02-09 01:07:00,31.3,28.0,30.00,WSW,250,11.0,-999.0,86,-99.99,,,0.00,0,weatherlink.com 1.10,2013-02-09 09:07:00,
2013-02-09 01:23:00,31.3,28.0,30.00,West,280,8.0,-999.0,86,-99.99,,,0.00,0,weatherlink.com 1.10,2013-02-09 09:23:00,
2013-02-09 01:38:00,31.3,28.0,30.00,West,277,5.0,-999.0,86,-99.99,,,0.00,0,weatherlink.com 1.10,2013-02-09 09:38:00,
2013-02-09 01:53:00,31.4,28.0,30.00,West,281,5.0,-999.0,86,-99.99,,,0.00,0,weatherlink.com 1.10,2013-02-09 09:53:00,
2013-02-09 02:08:00,31.5,28.0,30.00,WSW,253,7.0,-999.0,86,-99.99,,,0.00,0,weatherlink.com 1.10,2013-02-09 10:08:00,
2013-02-09 02:23:00,31.5,28.0,30.00,WSW,248,5.0,-999.0,86,-99.99,,,0.00,0,weatherlink.com 1.10,2013-02-09 10:23:00,
2013-02-09 02:38:00,31.6,28.0,30.00,WSW,257,6.0,-999.0,87,-99.99,,,0.00,0,weatherlink.com 1.10,2013-02-09 10:38:00,
2013-02-09 02:53:00,31.7,28.0,29.99,WSW,256,7.0,-999.0,87,-99.99,,,0.00,0,weatherlink.com 1.10,2013-02-09 10:53:00,
2013-02-09 03:08:00,31.7,28.0,30.00,West,274,5.0,-999.0,87,-99.99,,,0.00,0,weatherlink.com 1.10,2013-02-09 11:08:00,
2013-02-09 03:23:00,31.7,28.0,29.99,West,261,6.0,-999.0,87,-99.99,,,0.00,0,weatherlink.com 1.10,2013-02-09 11:23:00,
2013-02-09 03:38:00,31.8,28.0,29.99,NW,311,3.0,-999.0,87,-99.99,,,0.00,0,weatherlink.com 1.10,2013-02-09 11:38:00,
2013-02-09 03:53:00,31.8,28.0,30.00,NW,323,4.0,-999.0,87,-99.99,,,0.00,0,weatherlink.com 1.10,2013-02-09 11:53:00,
2013-02-09 04:08:00,31.7,28.0,30.00,NW,321,3.0,-999.0,87,-99.99,,,0.00,0,weatherlink.com 1.10,2013-02-09 12:08:00,
2013-02-09 04:23:00,31.6,28.0,30.00,NW,322,5.0,-999.0,86,-99.99,,,0.00,0,weatherlink.com 1.10,2013-02-09 12:23:00,
2013-02-09 04:38:00,31.6,28.0,30.00,NNW,328,7.0,-999.0,86,-99.99,,,0.00,0,weatherlink.com 1.10,2013-02-09 12:38:00,
2013-02-09 04:53:00,31.7,28.0,30.00,West,279,4.0,-999.0,85,-99.99,,,0.00,0,weatherlink.com 1.10,2013-02-09 12:53:00,
2013-02-09 05:08:00,31.9,28.0,30.01,WNW,298,4.0,-999.0,85,-99.99,,,0.00,0,weatherlink.com 1.10,2013-02-09 13:08:00,
2013-02-09 05:23:00,31.9,28.0,30.00,West,281,5.0,-999.0,84,-99.99,,,0.00,0,weatherlink.com 1.10,2013-02-09 13:23:00,
2013-02-09 05:38:00,31.7,27.0,30.01,West,270,7.0,-999.0,84,-99.99,,,0.00,0,weatherlink.com 1.10,2013-02-09 13:38:00,
2013-02-09 05:53:00,31.7,27.0,30.01,West,267,5.0,-999.0,84,-99.99,,,0.00,0,weatherlink.com 1.10,2013-02-09 13:53:00,
2013-02-09 06:08:00,31.8,28.0,30.02,WNW,289,5.0,-999.0,84,-99.99,,,0.00,0,weatherlink.com 1.10,2013-02-09 14:08:00,
2013-02-09 06:23:00,31.8,28.0,30.02,WNW,286,5.0,-999.0,84,-99.99,,,0.00,0,weatherlink.com 1.10,2013-02-09 14:23:00,
2013-02-09 06:38:00,31.8,27.0,30.02,WNW,283,3.0,-999.0,83,-99.99,,,0.00,0,weatherlink.com 1.10,2013-02-09 14:38:00,
2013-02-09 06:53:00,31.8,27.0,30.03,West,263,9.0,-999.0,83,-99.99,,,0.00,0,weatherlink.com 1.10,2013-02-09 14:53:00,
2013-02-09 07:08:00,31.8,27.0,30.03,West,277,5.0,-999.0,82,-99.99,,,0.00,7,weatherlink.com 1.10,2013-02-09 15:08:00,
2013-02-09 07:23:00,31.8,27.0,30.04,NNW,327,4.0,-999.0,81,-99.99,,,0.00,14,weatherlink.com 1.10,2013-02-09 15:23:00,
2013-02-09 07:38:00,31.7,27.0,30.04,West,279,3.0,-999.0,81,-99.99,,,0.00,11,weatherlink.com 1.10,2013-02-09 15:38:00,
2013-02-09 07:53:00,31.8,26.0,30.05,NW,310,1.0,-999.0,80,-99.99,,,0.00,28,weatherlink.com 1.10,2013-02-09 15:53:00,
2013-02-09 08:08:00,31.8,26.0,30.06,NW,325,6.0,-999.0,78,-99.99,,,0.00,56,weatherlink.com 1.10,2013-02-09 16:08:00,
2013-02-09 08:24:00,31.9,25.0,30.06,NW,317,5.0,-999.0,77,-99.99,,,0.00,97,weatherlink.com 1.10,2013-02-09 16:24:00,
2013-02-09 08:38:00,31.9,25.0,30.07,WNW,286,7.0,-999.0,74,-99.99,,,0.00,111,weatherlink.com 1.10,2013-02-09 16:38:00,
2013-02-09 08:53:00,32.3,25.0,30.07,NNW,329,3.0,-999.0,73,-99.99,,,0.00,169,weatherlink.com 1.10,2013-02-09 16:53:00,
2013-02-09 09:08:00,32.6,24.0,30.07,NW,311,4.0,-999.0,72,-99.99,,,0.00,141,weatherlink.com 1.10,2013-02-09 17:08:00,
2013-02-09 09:24:00,32.5,24.0,30.08,NNW,336,8.0,-999.0,72,-99.99,,,0.00,172,weatherlink.com 1.10,2013-02-09 17:24:00,
2013-02-09 09:39:00,33.0,25.0,30.08,NNW,327,4.0,-999.0,73,-99.99,,,0.00,179,weatherlink.com 1.10,2013-02-09 17:39:00,
2013-02-09 09:53:00,33.2,25.0,30.09,NW,319,4.0,-999.0,73,-99.99,,,0.00,246,weatherlink.com 1.10,2013-02-09 17:53:00,
2013-02-09 10:09:00,33.5,25.0,30.09,NNW,329,8.0,-999.0,72,-99.99,,,0.00,241,weatherlink.com 1.10,2013-02-09 18:09:00,
2013-02-09 10:24:00,33.5,25.0,30.10,NW,325,8.0,-999.0,70,-99.99,,,0.00,236,weatherlink.com 1.10,2013-02-09 18:24:00,
2013-02-09 10:39:00,34.1,25.0,30.10,NNW,342,15.0,-999.0,69,-99.99,,,0.00,673,weatherlink.com 1.10,2013-02-09 18:39:00,
2013-02-09 10:54:00,35.1,26.0,30.10,NNW,330,12.0,-999.0,69,-99.99,,,0.00,724,weatherlink.com 1.10,2013-02-09 18:54:00,
2013-02-09 11:09:00,35.4,26.0,30.10,NW,317,7.0,-999.0,68,-99.99,,,0.00,650,weatherlink.com 1.10,2013-02-09 19:09:00,
2013-02-09 11:24:00,36.5,27.0,30.09,NW,323,7.0,-999.0,69,-99.99,,,0.00,652,weatherlink.com 1.10,2013-02-09 19:24:00,
2013-02-09 11:39:00,37.5,29.0,30.09,NW,317,7.0,-999.0,70,-99.99,,,0.00,719,weatherlink.com 1.10,2013-02-09 19:39:00,
2013-02-09 11:54:00,37.8,28.0,30.09,NW,304,6.0,-999.0,69,-99.99,,,0.01,856,weatherlink.com 1.10,2013-02-09 19:54:00,
2013-02-09 12:09:00,38.5,29.0,30.09,NNW,334,8.0,-999.0,70,-99.99,,,0.01,313,weatherlink.com 1.10,2013-02-09 20:09:00,
2013-02-09 12:24:00,39.1,31.0,30.09,NNW,334,16.0,-999.0,72,-99.99,,,0.02,921,weatherlink.com 1.10,2013-02-09 20:24:00,
2013-02-09 12:39:00,38.5,29.0,30.09,NNW,337,12.0,-999.0,69,-99.99,,,0.02,844,weatherlink.com 1.10,2013-02-09 20:39:00,
2013-02-09 12:53:00,38.7,29.0,30.09,NNW,334,12.0,-999.0,67,-99.99,,,0.02,816,weatherlink.com 1.10,2013-02-09 20:53:00,
2013-02-09 13:09:00,37.5,28.0,30.09,NNW,331,11.0,-999.0,68,-99.99,,,0.02,712,weatherlink.com 1.10,2013-02-09 21:09:00,
2013-02-09 13:24:00,37.3,28.0,30.09,NNW,327,11.0,-999.0,68,-99.99,,,0.02,626,weatherlink.com 1.10,2013-02-09 21:24:00,
2013-02-09 13:39:00,38.6,28.0,30.09,NW,320,11.0,-999.0,66,-99.99,,,0.02,766,weatherlink.com 1.10,2013-02-09 21:39:00,
2013-02-09 13:54:00,38.7,27.0,30.09,WNW,302,5.0,-999.0,62,-99.99,,,0.02,680,weatherlink.com 1.10,2013-02-09 21:54:00,
2013-02-09 14:09:00,38.3,27.0,30.09,NNW,340,9.0,-999.0,63,-99.99,,,0.02,605,weatherlink.com 1.10,2013-02-09 22:09:00,
2013-02-09 14:24:00,38.5,27.0,30.09,NNW,333,10.0,-999.0,63,-99.99,,,0.02,591,weatherlink.com 1.10,2013-02-09 22:24:00,
2013-02-09 14:39:00,37.7,25.0,30.09,NW,322,11.0,-999.0,61,-99.99,,,0.02,79,weatherlink.com 1.10,2013-02-09 22:39:00,
2013-02-09 14:54:00,36.9,25.0,30.09,NW,321,6.0,-999.0,62,-99.99,,,0.02,86,weatherlink.com 1.10,2013-02-09 22:54:00,
2013-02-09 15:09:00,37.4,26.0,30.09,NW,326,7.0,-999.0,64,-99.99,,,0.02,352,weatherlink.com 1.10,2013-02-09 23:09:00,
2013-02-09 15:24:00,38.2,25.0,30.08,NW,315,9.0,-999.0,60,-99.99,,,0.02,360,weatherlink.com 1.10,2013-02-09 23:24:00,
2013-02-09 15:39:00,38.5,26.0,30.08,NNW,333,8.0,-999.0,60,-99.99,,,0.02,302,weatherlink.com 1.10,2013-02-09 23:39:00,
2013-02-09 15:54:00,38.1,25.0,30.08,NW,318,7.0,-999.0,59,-99.99,,,0.02,260,weatherlink.com 1.10,2013-02-09 23:54:00,
2013-02-09 16:09:00,38.2,25.0,30.08,NNW,336,7.0,-999.0,60,-99.99,,,0.02,209,weatherlink.com 1.10,2013-02-10 00:09:00,
2013-02-09 16:24:00,37.8,25.0,30.09,NW,317,6.0,-999.0,60,-99.99,,,0.02,158,weatherlink.com 1.10,2013-02-10 00:24:00,
2013-02-09 16:39:00,37.4,25.0,30.09,NW,311,5.0,-999.0,61,-99.99,,,0.02,100,weatherlink.com 1.10,2013-02-10 00:39:00,
2013-02-09 16:54:00,37.1,25.0,30.09,West,276,4.0,-999.0,61,-99.99,,,0.02,53,weatherlink.com 1.10,2013-02-10 00:54:00,
2013-02-09 17:09:00,36.7,24.0,30.09,WNW,295,3.0,-999.0,61,-99.99,,,0.02,19,weatherlink.com 1.10,2013-02-10 01:09:00,
2013-02-09 17:24:00,35.7,24.0,30.10,NNW,330,5.0,-999.0,63,-99.99,,,0.02,7,weatherlink.com 1.10,2013-02-10 01:24:00,
2013-02-09 17:39:00,34.4,24.0,30.11,NNW,327,8.0,-999.0,65,-99.99,,,0.02,0,weatherlink.com 1.10,2013-02-10 01:39:00,
2013-02-09 17:55:00,33.7,23.0,30.11,NW,323,4.0,-999.0,66,-99.99,,,0.02,0,weatherlink.com 1.10,2013-02-10 01:55:00,
2013-02-09 18:09:00,33.3,23.0,30.11,NW,322,4.0,-999.0,67,-99.99,,,0.02,0,weatherlink.com 1.10,2013-02-10 02:09:00,
2013-02-09 18:24:00,33.0,23.0,30.12,West,271,4.0,-999.0,68,-99.99,,,0.02,0,weatherlink.com 1.10,2013-02-10 02:24:00,
2013-02-09 18:39:00,32.7,24.0,30.12,West,262,5.0,-999.0,71,-99.99,,,0.02,0,weatherlink.com 1.10,2013-02-10 02:39:00,
2013-02-09 18:55:00,32.5,24.0,30.12,West,275,4.0,-999.0,71,-99.99,,,0.02,0,weatherlink.com 1.10,2013-02-10 02:55:00,
2013-02-09 19:10:00,32.4,24.0,30.12,West,271,5.0,-999.0,70,-99.99,,,0.02,0,weatherlink.com 1.10,2013-02-10 03:10:00,
2013-02-09 19:24:00,32.4,23.0,30.12,West,267,3.0,-999.0,69,-99.99,,,0.02,0,weatherlink.com 1.10,2013-02-10 03:24:00,
2013-02-09 19:39:00,32.2,23.0,30.12,West,276,3.0,-999.0,68,-99.99,,,0.02,0,weatherlink.com 1.10,2013-02-10 03:39:00,
2013-02-09 19:55:00,31.9,22.0,30.13,West,273,1.0,-999.0,67,-99.99,,,0.02,0,weatherlink.com 1.10,2013-02-10 03:55:00,
2013-02-09 20:09:00,31.3,21.0,30.13,West,273,0.0,-999.0,66,-99.99,,,0.02,0,weatherlink.com 1.10,2013-02-10 04:09:00,
2013-02-09 20:24:00,31.3,21.0,30.13,West,273,2.0,-999.0,65,-99.99,,,0.02,0,weatherlink.com 1.10,2013-02-10 04:24:00,
2013-02-09 20:39:00,30.9,21.0,30.13,West,274,2.0,-999.0,66,-99.99,,,0.02,0,weatherlink.com 1.10,2013-02-10 04:39:00,
2013-02-09 20:54:00,31.3,20.0,30.14,WNW,288,2.0,-999.0,64,-99.99,,,0.02,0,weatherlink.com 1.10,2013-02-10 04:54:00,
2013-02-09 21:09:00,31.2,19.0,30.14,WNW,284,3.0,-999.0,62,-99.99,,,0.02,0,weatherlink.com 1.10,2013-02-10 05:09:00,
2013-02-09 21:24:00,31.1,19.0,30.14,West,269,2.0,-999.0,61,-99.99,,,0.02,0,weatherlink.com 1.10,2013-02-10 05:24:00,
2013-02-09 21:39:00,30.6,18.0,30.15,West,269,0.0,-999.0,61,-99.99,,,0.02,0,weatherlink.com 1.10,2013-02-10 05:39:00,
2013-02-09 21:54:00,30.8,19.0,30.15,West,269,0.0,-999.0,61,-99.99,,,0.02,0,weatherlink.com 1.10,2013-02-10 05:54:00,
2013-02-09 22:10:00,31.1,18.0,30.15,West,269,1.0,-999.0,59,-99.99,,,0.02,0,weatherlink.com 1.10,2013-02-10 06:10:00,
2013-02-09 22:25:00,30.9,18.0,30.16,West,269,0.0,-999.0,59,-99.99,,,0.02,0,weatherlink.com 1.10,2013-02-10 06:25:00,
2013-02-09 22:40:00,30.4,17.0,30.16,West,269,0.0,-999.0,59,-99.99,,,0.02,0,weatherlink.com 1.10,2013-02-10 06:40:00,
2013-02-09 22:55:00,30.2,17.0,30.16,West,269,0.0,-999.0,59,-99.99,,,0.02,0,weatherlink.com 1.10,2013-02-10 06:55:00,
2013-02-09 23:10:00,30.1,17.0,30.17,West,269,0.0,-999.0,58,-99.99,,,0.02,0,weatherlink.com 1.10,2013-02-10 07:10:00,
2013-02-09 23:25:00,30.2,17.0,30.17,West,269,2.0,-999.0,58,-99.99,,,0.02,0,weatherlink.com 1.10,2013-02-10 07:25:00,
2013-02-09 23:40:00,30.9,18.0,30.17,West,269,2.0,-999.0,58,-99.99,,,0.02,0,weatherlink.com 1.10,2013-02-10 07:40:00,
2013-02-09 23:55:00,31.3,18.0,30.17,West,269,0.0,-999.0,57,-99.99,,,0.02,0,weatherlink.com 1.10,2013-02-10 07:55:00,